TimeEDT,TemperatureF,Dew PointF,Humidity,Sea Level PressureIn,VisibilityMPH,Wind Direction,Wind SpeedMPH,Gust SpeedMPH,PrecipitationIn,Events,Conditions,WindDirDegrees,DateUTC
12:15 AM,43.0,33.8,70,30.23,10.0,Calm,Calm,-,N/A,,Overcast,0,2013-03-30 04:15:00
12:35 AM,42.3,34.0,72,30.23,10.0,Calm,Calm,-,N/A,,Overcast,0,2013-03-30 04:35:00
12:55 AM,40.5,34.2,78,30.22,10.0,Calm,Calm,-,N/A,,Overcast,0,2013-03-30 04:55:00
1:15 AM,39.4,33.8,80,30.22,10.0,Calm,Calm,-,N/A,,Overcast,0,2013-03-30 05:15:00
1:35 AM,37.8,33.1,83,30.22,10.0,Calm,Calm,-,N/A,,Overcast,0,2013-03-30 05:35:00
1:55 AM,38.5,33.1,81,30.22,10.0,Calm,Calm,-,N/A,,Overcast,0,2013-03-30 05:55:00
2:15 AM,36.7,33.1,87,30.22,10.0,Calm,Calm,-,N/A,,Overcast,0,2013-03-30 06:15:00
2:35 AM,36.3,32.4,86,30.22,10.0,Calm,Calm,-,N/A,,Overcast,0,2013-03-30 06:35:00
2:55 AM,34.5,32.0,90,30.22,10.0,Calm,Calm,-,N/A,,Scattered Clouds,0,2013-03-30 06:55:00
3:15 AM,35.6,32.9,90,30.21,10.0,Calm,Calm,-,N/A,,Mostly Cloudy,0,2013-03-30 07:15:00
3:35 AM,34.3,32.0,91,30.22,10.0,Calm,Calm,-,N/A,,Mostly Cloudy,0,2013-03-30 07:35:00
3:55 AM,33.6,32.0,94,30.22,10.0,Calm,Calm,-,N/A,,Mostly Cloudy,0,2013-03-30 07:55:00
4:15 AM,35.8,32.9,89,30.22,10.0,Calm,Calm,-,N/A,,Overcast,0,2013-03-30 08:15:00
4:35 AM,37.0,33.4,87,30.21,10.0,Calm,Calm,-,N/A,,Overcast,0,2013-03-30 08:35:00
4:55 AM,36.7,34.9,93,30.21,10.0,Calm,Calm,-,N/A,,Overcast,0,2013-03-30 08:55:00
5:15 AM,36.0,34.9,96,30.22,10.0,Calm,Calm,-,N/A,,Overcast,0,2013-03-30 09:15:00
5:35 AM,36.3,33.6,90,30.22,10.0,Calm,Calm,-,N/A,,Overcast,0,2013-03-30 09:35:00
5:55 AM,35.6,33.6,92,30.22,10.0,Calm,Calm,-,N/A,,Overcast,0,2013-03-30 09:55:00
6:15 AM,35.8,33.8,92,30.22,10.0,Calm,Calm,-,N/A,,Overcast,0,2013-03-30 10:15:00
6:35 AM,34.3,32.9,94,30.23,10.0,Calm,Calm,-,N/A,,Overcast,0,2013-03-30 10:35:00
6:55 AM,34.3,33.1,95,30.24,10.0,Calm,Calm,-,N/A,,Overcast,0,2013-03-30 10:55:00
7:15 AM,33.8,33.1,97,30.25,10.0,Calm,Calm,-,N/A,,Overcast,0,2013-03-30 11:15:00
7:35 AM,33.6,33.4,99,30.25,10.0,Calm,Calm,-,N/A,,Overcast,0,2013-03-30 11:35:00
7:55 AM,34.7,33.3,94,30.25,10.0,Calm,Calm,-,N/A,,Mostly Cloudy,0,2013-03-30 11:55:00
8:15 AM,36.5,34.7,93,30.26,10.0,Calm,Calm,-,N/A,,Scattered Clouds,0,2013-03-30 12:15:00
8:35 AM,40.3,37.2,89,30.26,10.0,Calm,Calm,-,N/A,,Clear,0,2013-03-30 12:35:00
8:55 AM,44.4,37.4,76,30.27,10.0,Calm,Calm,-,N/A,,Clear,0,2013-03-30 12:55:00
9:15 AM,48.0,38.8,71,30.27,10.0,Calm,Calm,-,N/A,,Clear,0,2013-03-30 13:15:00
9:35 AM,51.1,39.2,64,30.27,10.0,Calm,Calm,-,N/A,,Clear,0,2013-03-30 13:35:00
9:55 AM,54.1,37.8,54,30.27,10.0,ENE,3.5,-,N/A,,Clear,60,2013-03-30 13:55:00
10:15 AM,56.3,35.6,46,30.26,10.0,ESE,4.6,-,N/A,,Clear,110,2013-03-30 14:15:00
10:35 AM,57.2,34.7,43,30.26,10.0,NE,3.5,-,N/A,,Clear,40,2013-03-30 14:35:00
10:55 AM,57.7,34.3,41,30.25,10.0,ESE,4.6,-,N/A,,Clear,120,2013-03-30 14:55:00
11:15 AM,59.2,34.0,39,30.25,10.0,Calm,Calm,-,N/A,,Clear,0,2013-03-30 15:15:00
11:35 AM,59.9,34.3,38,30.24,10.0,SSE,3.5,-,N/A,,Clear,150,2013-03-30 15:35:00
11:55 AM,61.7,34.9,37,30.22,10.0,East,4.6,-,N/A,,Clear,90,2013-03-30 15:55:00
12:15 PM,61.5,34.5,36,30.22,10.0,ESE,3.5,-,N/A,,Clear,120,2013-03-30 16:15:00
12:35 PM,62.4,34.3,35,30.21,10.0,South,3.5,-,N/A,,Clear,170,2013-03-30 16:35:00
12:55 PM,62.1,34.0,35,30.19,10.0,NNE,4.6,-,N/A,,Clear,30,2013-03-30 16:55:00
1:15 PM,63.1,35.2,35,30.19,10.0,Calm,Calm,-,N/A,,Clear,0,2013-03-30 17:15:00
1:35 PM,64.4,34.7,33,30.19,10.0,NW,3.5,-,N/A,,Clear,320,2013-03-30 17:35:00
1:55 PM,64.9,34.5,32,30.16,10.0,SSE,6.9,-,N/A,,Clear,150,2013-03-30 17:55:00
2:15 PM,66.7,36.3,33,30.16,10.0,SE,5.8,-,N/A,,Clear,130,2013-03-30 18:15:00
2:35 PM,66.7,35.6,32,30.15,10.0,South,5.8,-,N/A,,Clear,170,2013-03-30 18:35:00
2:55 PM,66.6,35.4,32,30.14,10.0,SE,3.5,-,N/A,,Clear,130,2013-03-30 18:55:00
3:15 PM,67.3,36.0,32,30.14,10.0,Calm,Calm,-,N/A,,Clear,0,2013-03-30 19:15:00
3:35 PM,66.9,33.8,29,30.13,10.0,WSW,3.5,-,N/A,,Clear,250,2013-03-30 19:35:00
3:55 PM,67.3,34.7,30,30.12,10.0,West,3.5,-,N/A,,Clear,280,2013-03-30 19:55:00
4:15 PM,67.5,35.1,30,30.11,10.0,WNW,4.6,-,N/A,,Clear,300,2013-03-30 20:15:00
4:35 PM,68.2,34.5,29,30.10,10.0,West,8.1,-,N/A,,Clear,260,2013-03-30 20:35:00
4:55 PM,66.2,34.2,30,30.10,10.0,Calm,Calm,-,N/A,,Clear,0,2013-03-30 20:55:00
5:15 PM,67.1,35.1,31,30.10,10.0,Calm,Calm,-,N/A,,Clear,0,2013-03-30 21:15:00
5:35 PM,65.8,34.3,31,30.10,10.0,Calm,Calm,-,N/A,,Clear,0,2013-03-30 21:35:00
5:55 PM,66.4,34.7,31,30.09,10.0,SW,4.6,-,N/A,,Clear,230,2013-03-30 21:55:00
6:15 PM,64.9,36.3,35,30.09,10.0,Calm,Calm,-,N/A,,Clear,0,2013-03-30 22:15:00
6:35 PM,64.4,35.6,34,30.09,10.0,Calm,Calm,-,N/A,,Clear,0,2013-03-30 22:35:00
6:55 PM,62.6,34.7,35,30.10,10.0,Calm,Calm,-,N/A,,Clear,0,2013-03-30 22:55:00
7:15 PM,60.8,34.7,38,30.10,10.0,Calm,Calm,-,N/A,,Clear,0,2013-03-30 23:15:00
7:35 PM,58.8,35.4,42,30.10,10.0,Calm,Calm,-,N/A,,Clear,0,2013-03-30 23:35:00
7:55 PM,55.0,37.8,52,30.10,10.0,Calm,Calm,-,N/A,,Clear,0,2013-03-30 23:55:00
8:15 PM,53.8,37.0,53,30.11,10.0,Calm,Calm,-,N/A,,Clear,0,2013-03-31 00:15:00
8:35 PM,53.1,36.5,53,30.10,10.0,Calm,Calm,-,N/A,,Clear,0,2013-03-31 00:35:00
8:55 PM,51.6,36.5,56,30.11,10.0,Calm,Calm,-,N/A,,Clear,0,2013-03-31 00:55:00
9:15 PM,49.3,38.3,66,30.10,10.0,Calm,Calm,-,N/A,,Clear,0,2013-03-31 01:15:00
9:35 PM,50.2,36.5,59,30.11,10.0,Calm,Calm,-,N/A,,Clear,0,2013-03-31 01:35:00
9:55 PM,48.2,38.7,70,30.11,10.0,Calm,Calm,-,N/A,,Clear,0,2013-03-31 01:55:00
10:15 PM,48.0,38.5,70,30.10,10.0,Calm,Calm,-,N/A,,Clear,0,2013-03-31 02:15:00
10:35 PM,46.8,38.7,73,30.10,10.0,Calm,Calm,-,N/A,,Clear,0,2013-03-31 02:35:00
10:55 PM,46.6,38.1,72,30.10,10.0,Calm,Calm,-,N/A,,Clear,0,2013-03-31 02:55:00
11:15 PM,45.9,39.2,78,30.10,10.0,Calm,Calm,-,N/A,,Clear,0,2013-03-31 03:15:00
11:35 PM,45.5,39.2,79,30.10,10.0,Calm,Calm,-,N/A,,Clear,0,2013-03-31 03:35:00
11:55 PM,43.7,38.5,82,30.10,10.0,Calm,Calm,-,N/A,,Clear,0,2013-03-31 03:55:00